Location: Gleizolles
(44.4833°N, 6.7667°E)
Time: 08:45:51
(UTC+00:00)

STRAND 1 - Visible Passes

Search period start: 09 May 2021 00:00
Search period end: 19 May 2021 00:00
Orbit: 767 x 781 km, 98.4° (Epoch: 08 May)

Date Brightness Start Highest point End Pass type
(mag) Time Alt. Az. Time Alt. Az. Time Alt. Az.
09 May ? 19:19:19 10° N 19:24:23 63° WNW 19:29:27 10° SSW visible
10 May ? 20:25:33 10° NNW 20:29:00 18° WNW 20:32:27 10° WSW visible
11 May ? 19:50:40 10° N 19:55:16 34° WNW 19:59:52 10° SW visible
12 May ? 19:16:16 10° N 19:21:22 67° WNW 19:26:28 10° SSW visible
12 May ? 20:59:03 10° NW 20:59:35 10° NW 21:00:07 10° WNW visible
13 May ? 20:22:26 10° NNW 20:26:01 20° WNW 20:29:36 10° WSW visible
14 May ? 19:47:36 10° N 19:52:16 36° WNW 19:56:56 10° SW visible
15 May ? 20:55:23 10° NW 20:56:37 11° NW 20:57:51 10° WNW visible
16 May ? 20:19:19 10° NNW 20:23:02 21° WNW 20:26:45 10° WSW visible
17 May ? 19:44:32 10° N 19:49:17 38° WNW 19:54:01 10° SW visible
18 May ? 20:52:00 10° NW 20:53:39 12° NW 20:55:19 10° WNW visible
